• Join FlightAware (Why Join?)
  • Login
  • US Flag 
05:00PM EDT


 

Airport Tracker/Info


-or-


 

Live Flight TrackerFlight Track Log ✈ FLG3735 ✈ 05-May-2013 ✈ KDTW - KALB

Flight Track Log - Related Links

Times and Time Zones

All times are in EDT time to prevent confusion due to time zone crossing. See the FLG3735 flight status page for this flight to view local times or setup timezone preferences in your user account.

Time Position Orientation Groundspeed Altitude Reporting Facility
EDT Latitude Longitude Course Direction KTS MPH feet Rate Location/Type
07:43PM 42.2314 -83.3342 82° East 164 189 1,200  Level Cleveland Center
07:43PM 42.2525 -83.3183 29° Northeast 183 211 2,300 2,160 Climbing Cleveland Center
07:44PM 42.3036 -83.2756 32° Northeast 225 259 4,500 2,160 Climbing Cleveland Center
07:45PM 42.3511 -83.2044 48° Northeast 269 310 6,800 2,580 Climbing Cleveland Center
07:46PM 42.2793 -82.9327 71° East  Level FlightAware Approximate
07:47PM 42.3079 -82.7942 75° East  Level FlightAware Approximate
07:47PM 42.3533 -83.1036 88° East 271 312 9,900  Level Cleveland Center
07:48PM 42.3264 -82.6527 82° East  Level FlightAware Approximate
07:48PM 42.3556 -82.9967 88° East 271 312 12,500  Level Cleveland Center
07:49PM 42.3581 -82.8844 88° East 279 321 13,900 1,500 Climbing Cleveland Center
07:50PM 42.3606 -82.7525 88° East 315 362 15,500 1,500 Climbing Cleveland Center
07:51PM 42.3650 -82.6178 87° East 343 395 17,000 1,440 Climbing Cleveland Center
07:52PM 42.3675 -82.4800 89° East 356 410 18,400 1,260 Climbing Cleveland Center
07:53PM 42.3633 -82.3394 92° East 366 421 19,600 1,080 Climbing Cleveland Center
07:54PM 42.3550 -82.1989 95° East 366 421 20,600 900 Climbing Cleveland Center
07:55PM 42.3506 -82.0667 93° East 378 435 21,400 900 Climbing Cleveland Center
07:56PM 42.3442 -81.9203 93° East 384 442 22,500 960 Climbing Cleveland Center
07:57PM 42.3375 -81.7686 93° East 396 456 23,400 660 Climbing Cleveland Center
07:58PM 42.3325 -81.6167 92° East 401 461 23,900 480 Climbing Cleveland Center
07:59PM 42.3256 -81.4453 93° East 406 467 24,400 480 Climbing Cleveland Center
08:00PM 42.3164 -81.2853 94° East 415 478 24,900 600 Climbing Cleveland Center
08:01PM 42.3089 -81.1278 94° East 422 486 25,600 840 Climbing Cleveland Center
08:02PM 42.2992 -80.9678 95° East 420 483 26,600 720 Climbing Cleveland Center
08:03PM 42.2911 -80.8078 94° East 420 483 27,100 480 Climbing Cleveland Center
08:04PM 42.2831 -80.6478 94° East 431 496 27,600 480 Climbing Cleveland Center
08:05PM 42.2747 -80.4794 94° East 431 496 28,100 480 Climbing Cleveland Center
08:06PM 42.2639 -80.3167 95° East 431 496 28,600 420 Climbing Cleveland Center
08:07PM 42.2572 -80.1681 93° East 438 504 29,000 180 Climbing Cleveland Center
08:08PM 42.2442 -79.9997 96° East 447 514 29,000  Level Cleveland Center
08:09PM 42.2347 -79.8289 94° East 453 521 29,000  Level Cleveland Center
08:10PM 42.2231 -79.6581 95° East 458 527 29,000  Level Cleveland Center
08:11PM 42.2111 -79.4842 95° East 458 527 29,000  Level Cleveland Center
08:12PM 42.2011 -79.3106 94° East 458 527 29,000  Level Cleveland Center
08:13PM 42.1906 -79.1400 95° East 458 527 29,000  Level Cleveland Center
08:14PM 42.2092 -78.9686 82° East 458 527 29,000  Level Cleveland Center
08:15PM 42.2317 -78.7969 80° East 464 534 29,000  Level Cleveland Center
08:16PM 42.2519 -78.6281 81° East 464 534 29,000  Level Cleveland Center
08:17PM 42.2739 -78.4533 80° East 464 534 29,000  Level Cleveland Center
08:18PM 42.2936 -78.2842 81° East 464 534 29,000  Level Cleveland Center
08:19PM 42.3150 -78.1150 80° East 464 534 29,000  Level Cleveland Center
08:20PM 42.3342 -77.9400 82° East 464 534 29,000  Level Cleveland Center
08:21PM 42.3550 -77.7706 80° East 464 534 29,000  Level Cleveland Center
08:22PM 42.3756 -77.5953 81° East 464 534 29,000  Level Cleveland Center
08:23PM 42.3961 -77.4228 81° East 464 534 29,000  Level Cleveland Center
08:24PM 42.4289 -77.1214 82° East 455 524 29,000  Level Boston Center
08:25PM 42.4483 -76.9486 81° East 461 531 29,000  Level Boston Center
08:26PM 42.4675 -76.7781 81° East 461 531 29,000  Level Boston Center
08:27PM 42.4844 -76.6047 82° East 461 531 29,000  Level Boston Center
08:28PM 42.5031 -76.4339 82° East 461 531 29,000  Level Boston Center
08:29PM 42.5194 -76.2631 83° East 461 531 29,000 -780 Level Boston Center
08:30PM 42.5375 -76.0922 82° East 461 531 27,500 -1,680 Descending Boston Center
08:31PM 42.5553 -75.9297 81° East 451 519 25,700 -1,800 Descending Boston Center
08:32PM 42.5725 -75.7728 81° East 438 504 24,000 -1,800 Descending Boston Center
08:33PM 42.5881 -75.5875 83° East 416 479 21,800 -1,680 Descending Boston Center
08:35PM 42.6025 -75.4386 82° East 405 466 20,000 -1,860 Descending Boston Center
08:36PM 42.6236 -75.2647 81° East 400 460 17,800 -1,740 Descending Boston Center
08:37PM 42.6561 -75.1278 72° East 389 448 16,200 -1,740 Descending Boston Center
08:38PM 42.6975 -74.9658 71° East 377 434 14,100 -2,040 Descending Boston Center
08:38PM 42.7025 -74.9319 79° East 381 438 13,600 -1,740 Descending Boston Center
08:38PM 42.7136 -74.8900 70° East 377 434 13,100 -1,860 Descending Boston Center
08:39PM 42.7275 -74.8286 73° East 372 428 12,300 -1,920 Descending Boston Center
08:39PM 42.7436 -74.7583 73° East 363 418 11,200 -1,320 Descending Boston Center
08:40PM 42.7569 -74.7164 67° East 365 420 11,000 -240 Descending Boston Center
08:40PM 42.7775 -74.6267 73° East 345 397 11,000  Level Boston Center
08:41PM 42.7889 -74.5761 73° East 353 406 11,000  Level Boston Center
08:41PM 42.7903 -74.5028 88° East 326 375 11,000 -240 Level Boston Center
08:42PM 42.7928 -74.4717 84° East 320 368 10,800 -1,440 Descending Boston Center
08:42PM 42.7964 -74.3953 86° East 271 312 9,600 -2,040 Descending Boston Center
08:43PM 42.7989 -74.3586 85° East 283 326 8,800 -1,920 Descending Boston Center
08:43PM 42.8019 -74.2964 86° East 266 306 7,700 -1,620 Descending Boston Center
08:44PM 42.8025 -74.2653 89° East 269 310 7,200 -1,800 Descending Boston Center
08:44PM 42.8078 -74.1975 84° East 257 296 5,900 -2,040 Descending Boston Center
08:45PM 42.8083 -74.1608 89° East 253 291 5,200 -1,800 Descending Boston Center
08:45PM 42.8133 -74.1044 83° East 248 285 4,100 -1,440 Descending Boston Center
08:46PM 42.8136 -74.0844 89° East 248 285 3,800 -1,140 Descending Boston Center
08:46PM 42.8167 -74.0139 87° East 240 276 3,000 -1,020 Descending Boston Center
08:47PM 42.8219 -73.9375 85° East 195 224 2,100 -600 Descending Boston Center
08:48PM 42.8292 -73.8669 82° East 164 189 1,900 -420 Descending Boston Center
08:49PM 42.8067 -73.8211 124° Southeast 121 139 1,300 -660 Descending Boston Center
08:50PM 42.7736 -73.8092 165° South 122 140 600 -720 Descending Boston Center